This demonstration page uses our WeatherBlox Daily Observations layout. Learn more.

38.89511, -77.03637

Hourly Observations for April 16, 2015

Temp ( °F °C ) Dew Point ( °F °C ) Humidity (%) Winds ( mph kmh ) Pressure ( in mb ) Visibility ( mi km ) Precip ( " mm )
12:52 am 00:52 Cloudy 57 14 39 4 51 51 Calm 30.36 1028 10 16.09344 0 0
1:52 am 01:52 Cloudy 55 13 41 5 59 59 Calm 30.36 1028 10 16.09344 0 0
2:52 am 02:52 Cloudy 54 12 41 5 63 63 NNE 5 7 30.36 1028 10 16.09344 0 0
3:52 am 03:52 Cloudy 55 13 39 4 55 55 Calm 30.36 1028 10 16.09344 0 0
4:52 am 04:52 Mostly Cloudy 54 12 41 5 63 63 Calm 30.39 1029 10 16.09344 0 0
5:52 am 05:52 Mostly Cloudy 54 12 39 4 58 58 Calm 30.39 1029 10 16.09344 0 0
6:52 am 06:52 Mostly Cloudy 54 12 34 1 47 47 Calm 30.42 1030 10 16.09344 0 0
7:52 am 07:52 Mostly Cloudy 55 13 36 2 47 47 N 6 9 30.42 1030 10 16.09344 0 0
8:52 am 08:52 Partly Cloudy 59 15 36 2 42 42 NNE 7 11 30.42 1030 10 16.09344 0 0
9:52 am 09:52 Mostly Sunny 63 17 37 3 39 39 Calm 30.42 1030 10 16.09344 0 0
10:52 am 10:52 Partly Cloudy 64 18 37 3 37 37 Calm 30.42 1030 10 16.09344 0 0
11:52 am 11:52 Partly Cloudy 70 21 37 3 31 31 Calm 30.42 1030 10 16.09344 0 0
12:52 pm 12:52 Mostly Cloudy 72 22 36 2 27 27 SSE 9 15 30.39 1029 10 16.09344 0 0
1:52 pm 13:52 Mostly Cloudy 73 23 34 1 23 23 SSW 7 11 30.36 1028 10 16.09344 0 0
2:52 pm 14:52 Mostly Cloudy 72 22 39 4 31 31 S 8 13 30.33 1027 10 16.09344 0 0
3:52 pm 15:52 Mostly Cloudy 73 23 43 6 33 33 S 15 24 30.33 1027 10 16.09344 0 0
4:52 pm 16:52 Mostly Cloudy 72 22 46 8 41 41 S 10 17 30.3 1026 10 16.09344 0 0
5:52 pm 17:52 Mostly Cloudy 70 21 46 8 43 43 S 15 24 30.3 1026 10 16.09344 0 0
6:52 pm 18:52 Mostly Cloudy 68 20 46 8 46 46 SSE 15 24 30.27 1025 10 16.09344 0.001 0.001
7:52 pm 19:52 Cloudy 66 19 46 8 49 49 SSE 13 20 30.27 1025 10 16.09344 0 0
8:52 pm 20:52 Cloudy 66 19 48 9 52 52 SSE 13 20 30.27 1025 10 16.09344 0.001 0.001
9:52 pm 21:52 Cloudy 64 18 48 9 56 56 SSE 10 17 30.27 1025 10 16.09344 0 0
10:52 pm 22:52 Cloudy 63 17 48 9 59 59 S 7 11 30.27 1025 10 16.09344 0 0
11:37 pm 23:37 Cloudy with Light Rain 63 17 52 11 68 68 S 9 15 30.27 1025 10 16.09344 0.01 0.254
11:52 pm 23:52 Cloudy with Light Rain 63 17 52 11 68 68 S 8 13 30.27 1025 10 16.09344 0.01 0.254

Powered by AerisWeather